This demonstration page uses our WeatherBlox Daily Observations layout. Learn more.

Left ArrowRight Arrow

44.89941, -97.11507

Hourly Observations for August 12, 2022

Temp ( °F °C ) Dew Point ( °F °C ) Humidity (%) Winds ( mph kmh ) Pressure ( in mb ) Visibility ( mi km ) Precip ( " mm )
12:53 am 00:53 Clear 67 19.4 65 18.3 93 93 SE 10 17 30.01 1016 10 16 0.00 0.00
1:53 am 01:53 Clear 67 19.4 65 18.3 93 93 SE 13 20 29.99 1016 10 16 0.00 0.00
2:24 am 02:24 Mostly Clear 67 19.4 65 18.3 93 93 SSE 14 22 29.95 1014 10 16 0.00 0.00
2:39 am 02:39 Mostly Cloudy 67 19.4 65 18.3 93 93 SSE 14 22 29.95 1014 10 16 0.00 0.00
2:53 am 02:53 Cloudy 67 19.4 65 18.3 93 93 SSE 15 24 29.97 1015 10 16 0.00 0.00
3:44 am 03:44 Partly Cloudy 67 19.4 66 18.9 97 97 SSE 15 24 29.93 1013 10 16 0.00 0.00
3:53 am 03:53 Mostly Clear 67 19.4 66 18.9 97 97 SSE 14 22 29.96 1015 10 16 0.00 0.00
4:53 am 04:53 Clear 68 20 67 19.4 96 96 S 15 24 29.96 1015 10 16 0.00 0.00
5:53 am 05:53 Clear 68 20 66 18.9 93 93 S 12 19 29.96 1015 10 16 0.00 0.00
6:53 am 06:53 Sunny 69 20.6 65 18.3 87 87 SSE 10 17 29.97 1015 10 16 0.00 0.00
7:53 am 07:53 Sunny 69 20.6 64 17.8 84 84 SSE 9 15 29.98 1015 10 16 0.00 0.00
8:53 am 08:53 Sunny 71 21.7 64 17.8 79 79 SSE 12 19 29.94 1014 10 16 0.00 0.00
9:53 am 09:53 Sunny 74 23.3 64 17.8 71 71 SSE 14 22 29.93 1013 10 16 0.00 0.00
10:53 am 10:53 Sunny 76 24.4 63 17.2 64 64 SSE 10 17 29.92 1013 10 16 0.00 0.00
11:53 am 11:53 Sunny 80 26.7 64 17.8 58 58 S 17 28 29.89 1012 10 16 0.00 0.00
12:53 pm 12:53 Sunny 81 27.2 63 17.2 54 54 S 13 20 29.87 1012 10 16 0.00 0.00
1:53 pm 13:53 Sunny 86 30 64 17.8 48 48 SSW 13 20 29.86 1011 10 16 0.00 0.00
2:53 pm 14:53 Sunny 88 31.1 67 19.4 50 50 SSW 12 19 29.86 1011 10 16 0.00 0.00
3:53 pm 15:53 Sunny 90 32.2 66 18.9 45 45 SW 12 19 29.85 1011 10 16 0.00 0.00
4:53 pm 16:53 Sunny 87 30.6 67 19.4 51 51 WNW 10 17 29.85 1011 10 16 0.00 0.00
5:53 pm 17:53 Sunny 82 27.8 70 21.1 67 67 NNW 13 20 29.86 1011 10 16 0.00 0.00
6:53 pm 18:53 Sunny 79 26.1 70 21.1 74 74 NNW 8 13 29.86 1011 10 16 0.00 0.00
7:53 pm 19:53 Sunny 77 25 68 20 74 74 N 12 19 29.87 1012 10 16 0.00 0.00
8:53 pm 20:53 Clear 74 23.3 67 19.4 79 79 N 9 15 29.88 1012 10 16 0.00 0.00
9:53 pm 21:53 Mostly Clear 72 22.2 69 20.6 91 91 NNW 9 15 29.89 1012 10 16 0.00 0.00
10:53 pm 22:53 Clear 71 21.7 69 20.6 93 93 NNW 13 20 29.90 1012 10 16 0.00 0.00
11:42 pm 23:42 Partly Cloudy 69 20.6 68 20 96 96 NNW 12 19 29.88 1012 10 16 0.00 0.00
11:53 pm 23:53 Mostly Cloudy 70 21.1 68 20 93 93 N 10 17 29.91 1013 10 16 0.00 0.00

Powered by AerisWeather